Content
SEND FEEDBACK

Daily
Averages
Monthly
Summary
French Polynesia

HITIAA, FRENCH POLYNESIA


Home > Oceania > French Polynesia
Elevation: 7 feet     Latitude: 17 33S     Longitude: 149 37W

WEATHER
 
SELECT A DAY
Number of Records: 208,843;   Date Range: 6/30/96 - 9/21/14
 
SHARE

PRINT THIS DATA

[ ← Previous Day ]
WEATHER ALMANAC - OCTOBER 12, 2013
[ Next Day → ]
[ °C ]   °F
Weather ElementAverageHighLow
Temperature80.1 °F86 °F (12:00 pm)73.4 °F (3:00 am)
Dewpoint67.8 °F71.6 °F (2:00 pm)62.6 °F (7:30 pm)
Humidity65.1 %83 % (3:00 am)50 % (5:00 pm)
Barometer29.98 in30.04 in (8:00 am)29.92 in (2:00 pm)
Wind Speed6.1 mph20.1 mph (2:00 pm)
Weather ElementAverage
Visibility8.2 mi
Wind DirectionSE (135.6 °)

Weather ElementTotal
Precipitation---
Cooling Degree Days14.7 (Base 65)
Growing Degree Days29.7 (Base 50)
Averaged from 54 records on October 12, 2013
WEATHER CONDITIONS BREAKOUT
WIND DIRECTION BREAKOUT
WEATHER BY HOUR - OCTOBER 12, 2013
[ °C ]   °F
Local TimeTemperatureDewpointHumidityBarometerVisibilityWind DirectionWind SpeedGust SpeedPrecipitationEventsConditions
12:30 AM75.2 °F68.0 °F78 %29.98 in6.2 miVariable2.3 mphPartly Cloudy
1:00 AM75.2 °F68.0 °F78 %29.98 in6.2 miSouth (180°)6.9 mphPartly Cloudy
1:30 AM75.2 °F68.0 °F78 %29.98 in6.2 miVariable3.5 mphPartly Cloudy
2:00 AM75.0 °F68.0 °F72 %29.98 in12.0 miEast (90°)3.5 mphScattered Clouds
2:00 AM75.2 °F68.0 °F78 %29.98 in6.2 miEast (90°)3.5 mphPartly Cloudy
3:00 AM73.4 °F68.0 °F83 %29.98 in6.2 miEast (100°)3.5 mphPartly Cloudy
3:30 AM75.2 °F68.0 °F78 %29.95 in6.2 miSSE (160°)4.6 mph
4:00 AM75.2 °F68.0 °F78 %29.95 in6.2 miVariable1.2 mph
4:30 AM75.2 °F66.2 °F73 %29.98 in6.2 miENE (70°)6.9 mphOvercast
5:00 AM75.0 °F66.0 °F67 %29.99 in37.0 miSouth (170°)2.3 mphClear
5:00 AM75.2 °F66.2 °F73 %29.98 in6.2 miVariable2.3 mphScattered Clouds
5:30 AM75.2 °F66.2 °F73 %29.98 in6.2 miCalm
6:00 AM75.2 °F68.0 °F78 %30.01 in6.2 miCalmPartly Cloudy
6:30 AM77.0 °F68.0 °F74 %30.01 in6.2 miCalmPartly Cloudy
7:00 AM78.8 °F69.8 °F74 %30.01 in6.2 miVariable2.3 mphPartly Cloudy
7:30 AM80.6 °F69.8 °F70 %30.01 in6.2 miVariable2.3 mphPartly Cloudy
8:00 AM81.0 °F69.0 °F59 %30.04 in19.0 miNW (310°)6.7 mphPartly Cloudy
8:00 AM80.6 °F69.8 °F70 %30.04 in6.2 miVariable3.5 mphPartly Cloudy
8:30 AM82.4 °F69.8 °F66 %30.04 in6.2 miWSW (240°)3.5 mphScattered Clouds
9:00 AM82.4 °F69.8 °F66 %30.04 in6.2 miSW (230°)3.5 mphScattered Clouds
9:30 AM84.2 °F69.8 °F62 %30.04 in6.2 miWSW (240°)3.5 mphScattered Clouds
10:00 AM84.2 °F69.8 °F62 %30.01 in6.2 miSSW (210°)9.2 mphScattered Clouds
10:30 AM84.2 °F68.0 °F58 %30.01 in6.2 miWSW (240°)8.1 mphScattered Clouds
11:00 AM84.0 °F69.0 °F51 %30.01 in19.0 miNNW (330°)5.8 mphPartly Cloudy
11:00 AM84.2 °F68.0 °F58 %30.01 in6.2 miNNW (330°)5.8 mphScattered Clouds
11:30 AM84.2 °F68.0 °F58 %29.98 in6.2 miWNW (290°)10.4 mphPartly Cloudy
12:00 PM86.0 °F69.8 °F58 %29.98 in6.2 miWSW (250°)8.1 mphPartly Cloudy
12:30 PM86.0 °F69.8 °F58 %29.95 in6.2 miWSW (240°)5.8 mphPartly Cloudy
1:00 PM86.0 °F68.0 °F55 %29.95 in6.2 miSW (220°)9.2 mphScattered Clouds
1:30 PM84.2 °F69.8 °F62 %29.95 in6.2 miSW (220°)13.8 mphScattered Clouds
2:00 PM85.0 °F71.0 °F55 %29.94 in19.0 miWSW (240°)20.1 mphMostly Cloudy
2:00 PM84.2 °F71.6 °F66 %29.92 in6.2 miWSW (240°)10.4 mphScattered Clouds
2:30 PM86.0 °F69.8 °F58 %29.92 in6.2 miWest (260°)6.9 mphScattered Clouds
3:00 PM84.2 °F69.8 °F62 %29.92 in6.2 miWNW (300°)8.1 mphMostly Cloudy
3:30 PM84.2 °F69.8 °F62 %29.92 in6.2 miWNW (300°)8.1 mphMostly Cloudy
4:00 PM86.0 °F69.8 °F58 %29.92 in6.2 miWest (280°)5.8 mphMostly Cloudy
4:30 PM84.2 °F68.0 °F58 %29.92 in6.2 miNNE (20°)4.6 mphMostly Cloudy
5:00 PM83.0 °F67.0 °F50 %29.95 in19.0 miENE (60°)13.8 mphScattered Clouds
5:00 PM84.2 °F68.0 °F58 %29.95 in6.2 miENE (60°)13.8 mphMostly Cloudy
5:30 PM82.4 °F68.0 °F62 %29.95 in6.2 miENE (60°)11.5 mphMostly Cloudy
6:00 PM80.6 °F68.0 °F65 %29.95 in6.2 miENE (60°)13.8 mphMostly Cloudy
6:30 PM80.6 °F64.4 °F58 %29.98 in6.2 miENE (70°)8.1 mphMostly Cloudy
7:00 PM80.6 °F66.2 °F61 %29.98 in6.2 miENE (60°)10.4 mphMostly Cloudy
7:30 PM80.6 °F62.6 °F54 %29.98 in6.2 miEast (80°)5.8 mphMostly Cloudy
8:00 PM79.0 °F65.0 °F52 %30.00 in16.0 miEast (80°)4.6 mphScattered Clouds
8:00 PM78.8 °F64.4 °F61 %29.98 in6.2 miEast (80°)4.6 mphMostly Cloudy
8:30 PM77.0 °F64.4 °F65 %30.01 in6.2 miEast (90°)4.6 mphScattered Clouds
9:00 PM78.8 °F66.2 °F65 %30.01 in6.2 miEast (90°)4.6 mphScattered Clouds
9:30 PM78.8 °F64.4 °F61 %30.01 in6.2 miENE (60°)3.5 mphScattered Clouds
10:00 PM77.0 °F66.2 °F69 %30.01 in6.2 miESE (110°)4.6 mphScattered Clouds
10:30 PM77.0 °F66.2 °F69 %30.01 in6.2 miCalmScattered Clouds
11:00 PM76.0 °F66.0 °F63 %30.01 in16.0 miSouth (180°)11.2 mphScattered Clouds
11:00 PM77.0 °F66.2 °F69 %30.01 in6.2 miSouth (180°)5.8 mphScattered Clouds
11:30 PM77.0 °F66.2 °F69 %30.01 in6.2 miSSE (150°)4.6 mphScattered Clouds
Hourly data recorded from NTAA, located miles away from Hitiaa, French Polynesia







STORIES FROM OUR PARTNERS